Detroit Lakes, MN

6:58 PM CDT on October 21, 2017 (GMT -0500)
Detroit Lakes

Weather History for KDTL - March, 2014

Change the Weather History Date:

Friday, March 21, 2014

  Actual Average Record
Temperature  
Mean Temperature 20 °F -  
Max Temperature 35 °F 37 °F 66 °F (2012)
Min Temperature 6 °F 17 °F -28 °F (1965)
Degree Days  
Heating Degree Days 44    
Moisture  
Dew Point 21 °F    
Average Humidity 90    
Maximum Humidity 100    
Minimum Humidity 79    
Precipitation  
Precipitation 0.32 in - - ()
Sea Level Pressure  
Sea Level Pressure 29.93 in    
Wind  
Wind Speed 15 mph (NW)    
Max Wind Speed 29 mph    
Max Gust Speed 44 mph    
Visibility 5 miles    
Events Rain , Snow    
Averages and records for this station are not official NWS values.
T = Trace of Precipitation, MM = Missing Value Source: NWS Daily Summary

Daily Weather History Graph

Daily Weather History Graph

Search for Another Location

Airport or City:

Trip Planner

Search our weather history database for the weather conditions in past years. The results will help you decide how hot, cold, wet, or windy it might be!

Date:

Astronomy

Mar. 21, 2014 Rise Set
Actual Time 7:24 AM CDT 7:37 PM CDT
Civil Twilight 6:54 AM CDT 8:08 PM CDT
Nautical Twilight 6:18 AM CDT 8:43 PM CDT
Astronomical Twilight 5:41 AM CDT 9:20 PM CDT
Moon 12:13 AM CDT 10:00 AM CDT
Length of Visible Light 13h 13m
Length of Day
12h 13m
Waning Gibbous, 75% of the Moon is Illuminated
Mar 21
Waning Gibbous
Mar 23
Last Quarter
Mar 30
New
Apr 7
First Quarter
Apr 15
Full

Hourly Weather History & Observations

Time (CDT) Temp. Windchill Dew Point Humidity Pressure Visibility Wind Dir Wind Speed Gust Speed Precip Events Conditions
12:14 AM 35.6 °F 27.5 °F 32.0 °F 87% 29.76 in 10.0 mi SE 11.5 mph 16.1 mph N/A Rain Light Rain
12:35 AM 35.6 °F 29.2 °F 32.0 °F 87% 29.76 in 10.0 mi SE 8.1 mph - N/A   Light Drizzle
12:55 AM 35.6 °F 28.0 °F 32.0 °F 87% 29.75 in 10.0 mi SSE 10.4 mph - N/A   Clear
1:14 AM 35.6 °F 27.5 °F 32.0 °F 87% 29.75 in 10.0 mi SSE 11.5 mph - N/A   Clear
1:35 AM 35.6 °F 28.0 °F 32.0 °F 87% 29.75 in 10.0 mi SSE 10.4 mph - N/A   Clear
1:55 AM 35.6 °F 29.2 °F 32.0 °F 87% 29.75 in 10.0 mi SE 8.1 mph - N/A   Mostly Cloudy
2:14 AM 35.6 °F 28.6 °F 32.0 °F 87% 29.74 in 10.0 mi SSE 9.2 mph - N/A   Light Drizzle
2:35 AM 35.6 °F 28.6 °F 32.0 °F 87% 29.74 in 7.0 mi SSE 9.2 mph - N/A Rain Light Rain
2:55 AM 35.6 °F 30.7 °F 33.8 °F 93% 29.73 in 5.0 mi SSE 5.8 mph - 0.01 in Rain Light Rain
3:14 AM 35.6 °F 29.2 °F 33.8 °F 93% 29.73 in 5.0 mi South 8.1 mph - N/A Rain Light Rain
3:35 AM 35.6 °F 29.2 °F 33.8 °F 93% 29.71 in 5.0 mi SSE 8.1 mph - 0.01 in Rain Light Rain
3:55 AM 35.6 °F 29.9 °F 33.8 °F 93% 29.70 in 7.0 mi SSE 6.9 mph - 0.02 in Rain Light Rain
4:14 AM 35.6 °F 29.2 °F 35.6 °F 100% 29.69 in 5.0 mi SSE 8.1 mph - 0.01 in Rain Light Rain
4:35 AM 35.6 °F 30.7 °F 35.6 °F 100% 29.69 in 4.0 mi South 5.8 mph - 0.03 in Rain Light Rain
4:55 AM 35.6 °F 27.5 °F 33.8 °F 93% 29.68 in 2.5 mi South 11.5 mph - 0.09 in   Overcast
5:14 AM 33.8 °F 28.6 °F 33.8 °F 100% 29.69 in 3.0 mi SW 5.8 mph - 0.03 in   Overcast
5:35 AM 33.8 °F 29.6 °F 32.0 °F 93% 29.69 in 1.5 mi SW 4.6 mph - 0.07 in Snow Light Snow
5:55 AM 32.0 °F 27.5 °F 32.0 °F 100% 29.68 in 1.0 mi SW 4.6 mph - 0.10 in Snow Snow
6:14 AM 32.0 °F 28.7 °F 32.0 °F 100% 29.68 in 1.8 mi SW 3.5 mph - 0.02 in Snow Light Snow
6:35 AM 32.0 °F 25.6 °F 32.0 °F 100% 29.67 in 2.0 mi SSW 6.9 mph - 0.07 in Snow Light Snow
6:55 AM 32.0 °F 25.6 °F 32.0 °F 100% 29.66 in 4.0 mi SSW 6.9 mph - 0.10 in Snow Light Snow
7:14 AM 32.0 °F 25.6 °F 32.0 °F 100% 29.67 in 7.0 mi SW 6.9 mph - N/A   Overcast
7:35 AM 32.0 °F 27.5 °F 32.0 °F 100% 29.67 in 5.0 mi WSW 4.6 mph - N/A   Overcast
7:55 AM 33.8 °F 26.4 °F 33.8 °F 100% 29.67 in 3.0 mi West 9.2 mph - N/A   Overcast
8:14 AM 33.8 °F 25.8 °F 33.8 °F 100% 29.67 in 0.5 mi West 10.4 mph - N/A   Overcast
8:35 AM 33.8 °F 24.3 °F 33.8 °F 100% 29.68 in 0.2 mi NW 13.8 mph 20.7 mph N/A   Overcast
8:54 AM 32.0 °F 20.1 °F 32.0 °F 100% 29.69 in 10.0 mi North 19.6 mph 26.5 mph N/A   Overcast
9:15 AM 32.0 °F 19.5 °F 32.0 °F 100% 29.71 in 10.0 mi North 21.9 mph 32.2 mph N/A   Overcast
9:35 AM 32.0 °F 18.9 °F 32.0 °F 100% 29.73 in 1.5 mi North 24.2 mph 34.5 mph N/A Snow Light Snow
9:54 AM 32.0 °F 18.6 °F 32.0 °F 100% 29.75 in 0.8 mi North 25.3 mph 33.4 mph N/A Snow Light Snow
10:15 AM 32.0 °F 18.1 °F 32.0 °F 100% 29.76 in 1.2 mi North 27.6 mph 40.3 mph N/A Snow Light Snow
10:34 AM 32.0 °F 18.1 °F 30.2 °F 93% 29.78 in 4.0 mi North 27.6 mph 43.7 mph N/A   Overcast
10:55 AM 30.2 °F 16.2 °F 28.4 °F 93% 29.81 in 4.0 mi NNW 25.3 mph 39.1 mph N/A   Overcast
11:14 AM 28.4 °F 13.8 °F 26.6 °F 93% 29.83 in 3.0 mi NNW 25.3 mph 33.4 mph N/A   Overcast
11:35 AM 26.6 °F 11.7 °F 24.8 °F 93% 29.86 in 5.0 mi NNW 24.2 mph 33.4 mph N/A   Overcast
11:54 AM 24.8 °F 9.3 °F 23.0 °F 93% 29.88 in 7.0 mi NNW 24.2 mph 35.7 mph N/A   Overcast
12:15 PM 23.0 °F 5.7 °F 21.2 °F 93% 29.89 in 7.0 mi NNW 28.8 mph 33.4 mph N/A   Overcast
12:35 PM 23.0 °F 6.0 °F 21.2 °F 93% 29.91 in 5.0 mi NNW 27.6 mph 36.8 mph N/A   Overcast
12:54 PM 23.0 °F 6.6 °F 21.2 °F 93% 29.93 in 7.0 mi NNW 25.3 mph 34.5 mph N/A   Overcast
1:15 PM 21.2 °F 4.5 °F 19.4 °F 93% 29.94 in 7.0 mi NNW 24.2 mph 29.9 mph N/A   Overcast
1:35 PM 21.2 °F 3.9 °F 19.4 °F 93% 29.96 in 7.0 mi NNW 26.5 mph 32.2 mph N/A   Overcast
1:54 PM 21.2 °F 3.9 °F 17.6 °F 86% 29.97 in 7.0 mi NNW 26.5 mph 36.8 mph N/A   Overcast
2:15 PM 19.4 °F 1.4 °F 17.6 °F 93% 29.99 in 4.0 mi NNW 26.5 mph 34.5 mph N/A   Overcast
2:35 PM 19.4 °F 2.5 °F 15.8 °F 86% 30.00 in 2.5 mi NW 23.0 mph 32.2 mph N/A   Overcast
2:54 PM 17.6 °F -0.6 °F 14.0 °F 86% 30.02 in 3.0 mi NW 25.3 mph 33.4 mph N/A   Overcast
3:15 PM 19.4 °F 2.8 °F 15.8 °F 86% 30.03 in 2.5 mi NNW 21.9 mph 29.9 mph N/A Snow Light Snow
3:35 PM 17.6 °F -0.6 °F 14.0 °F 86% 30.05 in 1.8 mi NNW 25.3 mph 34.5 mph N/A Snow Light Snow
3:54 PM 17.6 °F -1.6 °F 14.0 °F 86% 30.06 in 2.5 mi NNW 28.8 mph 33.4 mph N/A Snow Light Snow
4:15 PM 17.6 °F -0.6 °F 12.2 °F 79% 30.08 in 2.5 mi NNW 25.3 mph 34.5 mph N/A Snow Light Snow
4:35 PM 15.8 °F -3.1 °F 12.2 °F 86% 30.09 in 4.0 mi NNW 25.3 mph 34.5 mph N/A Snow Light Snow
4:54 PM 15.8 °F -2.7 °F 12.2 °F 86% 30.10 in 2.0 mi NNW 24.2 mph 32.2 mph N/A Snow Snow
5:15 PM 14.0 °F -5.8 °F 10.4 °F 86% 30.12 in 1.5 mi NW 26.5 mph 29.9 mph N/A Snow Light Snow
5:34 PM 14.0 °F -4.7 °F 10.4 °F 86% 30.13 in 3.0 mi NNW 23.0 mph 29.9 mph N/A Snow Light Snow
5:55 PM 14.0 °F -3.9 °F 10.4 °F 86% 30.14 in 2.0 mi NNW 20.7 mph 28.8 mph N/A Snow Light Snow
6:15 PM 12.2 °F -6.7 °F 10.4 °F 92% 30.15 in 3.0 mi NNW 21.9 mph 27.6 mph N/A Snow Light Snow
6:34 PM 12.2 °F -5.8 °F 8.6 °F 85% 30.16 in 2.0 mi NNW 19.6 mph 32.2 mph N/A Snow Light Snow
6:55 PM 12.2 °F -5.8 °F 8.6 °F 85% 30.17 in 3.0 mi NNW 19.6 mph 26.5 mph N/A Snow Light Snow
7:15 PM 10.4 °F -9.1 °F 8.6 °F 92% 30.18 in 7.0 mi NNW 21.9 mph 31.1 mph N/A Snow Light Snow
7:34 PM 10.4 °F -7.7 °F 6.8 °F 85% 30.20 in 3.0 mi NNW 18.4 mph 27.6 mph N/A Snow Light Snow
7:54 PM 10.4 °F -9.1 °F 5.0 °F 79% 30.21 in 10.0 mi NNW 21.9 mph 29.9 mph N/A   Scattered Clouds
8:15 PM 8.6 °F -10.5 °F 5.0 °F 85% 30.22 in 7.0 mi NNW 19.6 mph 26.5 mph N/A   Scattered Clouds
8:34 PM 8.6 °F -9.5 °F 5.0 °F 85% 30.24 in 4.0 mi NNW 17.3 mph 26.5 mph N/A Snow Light Snow
8:54 PM 8.6 °F -9.5 °F 5.0 °F 85% 30.25 in 10.0 mi NNW 17.3 mph - N/A   Scattered Clouds
9:15 PM 8.6 °F -11.4 °F 3.2 °F 79% 30.26 in 7.0 mi NNW 21.9 mph 26.5 mph N/A   Scattered Clouds
9:34 PM 8.6 °F -11.4 °F 3.2 °F 79% 30.28 in 10.0 mi NNW 21.9 mph 28.8 mph N/A   Scattered Clouds
9:54 PM 8.6 °F -10.0 °F 3.2 °F 79% 30.28 in 5.0 mi NNW 18.4 mph 26.5 mph N/A   Scattered Clouds
10:15 PM 6.8 °F -11.8 °F 3.2 °F 85% 30.29 in 10.0 mi NNW 17.3 mph - N/A   Scattered Clouds
10:34 PM 6.8 °F -11.8 °F 3.2 °F 85% 30.30 in 10.0 mi NNW 17.3 mph 24.2 mph N/A   Clear
10:54 PM 6.8 °F -13.8 °F 1.4 °F 79% 30.30 in 7.0 mi NNW 21.9 mph 27.6 mph N/A   Scattered Clouds
11:15 PM 6.8 °F -13.4 °F 1.4 °F 79% 30.31 in 10.0 mi NNW 20.7 mph 27.6 mph N/A   Clear
11:34 PM 6.8 °F -12.4 °F 1.4 °F 79% 30.31 in 10.0 mi NNW 18.4 mph 26.5 mph N/A   Clear
11:54 PM 6.8 °F -12.4 °F 1.4 °F 79% 30.32 in 10.0 mi NNW 18.4 mph 24.2 mph N/A   Clear